Location: Tr�vern
(48.0333°N, 4.6000°W)
Time: 01:50:52
(UTC+00:00)

Cosmos 1238 Rocket - Pass Details

Date: 14 July 2020
Orbit: 373 x 1030 km, 82.9° (Epoch: 04 August)

Event Time Altitude Azimuth Distance (km) Brightness Sun altitude
Exits shadow 00:49:52 39° 162° (SSE) 1,146 3.9 -20.1°
Maximum altitude 00:51:42 65° 96° (E) 808 3.5 -20.1°
Drops below altitude 10° 00:56:12 10° 15° (NNE) 2,037 6.9 -20.0°
Sets 00:58:15 0° 12° (NNE) 2,849 8.1 -19.9°
